Location: *
(38.4303°S, 157.0822°W)
Time: 13:41:55
(UTC+00:00)

ARIANE 5 R/B - Pass Details

Date: 21 May 2024
Orbit: 746 x 794 km, 98.8° (Epoch: 22 June)

Event Time Altitude Azimuth Distance (km) Brightness Sun altitude
Rises 15:40:55 0° 343° (NNW) 3,182 5.6 -20.9°
Reaches altitude 10° 15:43:36 10° 329° (NNW) 2,267 4.7 -20.4°
Enters shadow 15:44:15 13° 324° (NW) 2,071 4.5 -20.3°
